Regional Weather Roundup
Issued by NWS

Home | Current Version | Previous Version | Graphics & Text | Print | Product List | Glossary Off
Versions: 1 2 3 4 5 6 7 8 9 10 11 12 13 14 15 16 17 18 19 20 21 22 23 24 25 26 27

000
ASUS45 KBOU 201607
RWRCO

WEATHER ROUNDUP FOR COLORADO
NATIONAL WEATHER SERVICE DENVER/BOULDER CO
1000 AM MDT SUN AUG 20 2017

NOTE: "FAIR" INDICATES FEW OR NO CLOUDS BELOW 12000 FEET WITH NO
SIGNIFICANT WEATHER AND/OR OBSTRUCTIONS TO VISIBILITY.

COZ001>005-013-030-031-201700-
...NORTHWEST COLORADO...

CITY           SKY/WX    TMP DP  RH WIND       PRES   REMARKS
CRAIG          FAIR      72  38  29 CALM      30.22F
HAYDEN         FAIR      70  37  29 E9        30.26S
MEEKER         FAIR      69  41  36 S6        30.23F
RABBIT EARS PA FAIR      59  34  38 W3        30.53S
STEAMBOAT SPGS FAIR      66  37  35 CALM      30.27F
WALDEN         FAIR      64  34  32 SE3       30.36F
$$

COZ006>008-011-201700-
...WEST CENTRAL VALLEYS...

CITY           SKY/WX    TMP DP  RH WIND       PRES   REMARKS
GRAND JUNCTION FAIR      77  38  24 S12       30.12S
MONTROSE       FAIR      70  45  40 N7        30.19F
EAGLE          FAIR      64  36  35 S3        30.30F
RIFLE          FAIR      69  40  34 CALM      30.19F
DELTA          FAIR      73  38  27 E5        30.17S
NUCLA          FAIR      70  34  26 N5        30.23S
$$

COZ017>023-064>068-201700-
...SOUTHWEST COLORADO...

CITY           SKY/WX    TMP DP  RH WIND       PRES   REMARKS
DURANGO        FAIR      70  43  37 CALM      30.24F
CORTEZ         FAIR      76  45  33 SE5       30.18S
PAGOSA SPRINGS FAIR      71  40  32 S3        30.31F
TELLURIDE      FAIR      69  33  25 CALM      30.43S
WOLF CREEK PAS FAIR      55  32  41 N3        30.67S
$$

COZ009-010-012-014-032>034-037-058>063-201700-
...CENTRAL COLORADO...

CITY           SKY/WX    TMP DP  RH WIND       PRES   REMARKS
ASPEN          FAIR      69  36  29 NE5       30.32S
BUENA VISTA    FAIR      64  33  31 CALM      30.35F
COPPER MTN     FAIR      59  28  31 NW5       30.64S
BERTHOUD PASS  FAIR      48  43  81 W13       30.68R
COTTONWOOD PAS FAIR      64  28  25 E8        30.48S
GUNNISON       FAIR      57  34  41 CALM      30.37F
KREMMLING      FAIR      64  36  34 CALM      30.36S
LEADVILLE      FAIR      60  33  36 CALM      30.47S
MONARCH PASS   FAIR      54  27  35 SW6       30.74S
SALIDA         FAIR      66  34  30 CALM      30.40S
SUNLIGHT       FAIR      59  32  36 NW3       30.58R
WILKERSON PASS FAIR      59  28  31 CALM      30.62R
$$

COZ069>075-201700-
...SAN LUIS VALLEY/SANGRE DE CRISTO MOUNTAINS...

CITY           SKY/WX    TMP DP  RH WIND       PRES   REMARKS
ALAMOSA        FAIR      65  41  41 VRB3      30.32S
DEL NORTE      FAIR      66  42  41 CALM      30.36F
LA VETA PASS   NOT AVBL
SAGUACHE       FAIR      66  37  34 NW6       30.35F
$$

COZ035-036-038>040-201700-
...NORTHERN COLORADO FRONT RANGE...

CITY           SKY/WX    TMP DP  RH WIND       PRES   REMARKS
DENVER INTL AP FAIR      82  34  17 N6        30.13R
DMNS CITY PARK   N/A     80  42  26 E5G12     30.12S
AURORA         MOSUNNY   78  41  26 CALM      30.15R
FRONT RANGE AP FAIR      81  36  19 N7        30.15R
ERIE MUNI ARPT FAIR      80  35  19 NE5       30.15S
BOULDER MUN AP FAIR      79  41  25 CALM      30.12R
CENTENNIAL     FAIR      79  35  20 NW5       30.16R
BROOMFIELD     PTSUNNY   79  41  25 CALM      30.14S
FORT COLLINS   FAIR      75  46  35 N5        30.10S
LONGMONT       FAIR      82  42  24 CALM      30.11S
$$

COZ041-046-047-076>085-087-088-201700-
...PIKES PEAK/PALMER DIVIDE AND SOUTHERN FOOTHILLS...

CITY           SKY/WX    TMP DP  RH WIND       PRES   REMARKS
COLO. SPRINGS  PTSUNNY   84  40  21 N9        30.18R
A. F. ACADEMY  FAIR      80  38  22 N9        30.19S
SCHRIEVER AFB  FAIR      82  37  20 NE8       30.18R
CHEYENNE MTN   FAIR      78  33  19 N9        30.18R
ELLICOTT       NOT AVBL
FALCON         FAIR      80  37  20 N5        30.24R
FORT CARSON    FAIR      79  49  34 N6        30.14R
LIMON          FAIR      81  46  29 N10       30.12R
MONUMENT HILL  FAIR      72  41  33 N7        30.27R
CANON CITY     SUNNY     81  46  30 MISG      30.11S
WALSENBURG     FAIR      86  36  16 NW9       30.15S
TRINIDAD       FAIR      79  47  32 SW8       30.14S
$$

COZ042>045-048>051-090-091-201700-
...NORTHEAST COLORADO...

CITY           SKY/WX    TMP DP  RH WIND       PRES   REMARKS
GREELEY ARPT   FAIR      71  49  45 CALM      30.10R
AKRON          FAIR      77  42  28 N13       30.08R
BURLINGTON     FAIR      84  51  31 N10       30.02R
WRAY           NOT AVBL
YUMA           FAIR      79  36  21 N8        30.03R
STERLING       FAIR      72  52  49 NE8       30.05R
HOLYOKE        FAIR      81  63  54 N7        30.01S
FORT MORGAN    FAIR      78  35  20 NE16      30.09R
$$

COZ086-089-092>099-201700-
...SOUTHEAST COLORADO...

CITY           SKY/WX    TMP DP  RH WIND       PRES   REMARKS
PUEBLO         FAIR      79  50  36 CALM      30.06S
LA JUNTA       FAIR      76  56  49 W3        30.03R
LAMAR          FAIR      77  57  50 W7        29.98S
SPRINGFIELD      N/A     79  57  46 SW14G23   30.03S
$$




USA.gov is the U.S. government's official web portal to all federal, state and local government web resources and services.